sat.trackr.live / text

‹ back to catalog

NIMIQ 4

NORAD 33373 · 2008-044A

PAYLOAD ACTIVE UNKNOWN

§ Identity

Operator
Country
CA
Launch date
2008-09-19
Launch site
TYMSC
Launch vehicle
Mass (kg)
RCS (m²)
10.01

Purposes: comms

External: N2YO · Heavens-Above · Gunter

§ Orbital elements

Epoch: 2026-09-13T03:55:49.227744Z

Period
1,436.10 min
Inclination
0.0217°
Eccentricity
0.0001938
Mean motion
1.00271671 rev/d
Perigee alt
35,778.5 km
Apogee alt
35,794.8 km
Semi-major
42,164.8 km
B*
0.0000e+0
RAAN
119.0989°
Arg perigee
48.9532°
Mean anomaly
161.0915°
Rev number
6,586

§ Raw data

NIMIQ 41 33373U 08044A   26256.16376421 -.00000232  00000+0  00000+0 0  99922 33373   0.0217 119.0989 0001938  48.9532 161.0915  1.00271671 65863

JSON: /api/v1/satellites/33373 · /tle

For live sub-satellite position, see the globe view (requires WebGL).

§ Visibility from observer

Set your observer location to see the next 7 days of passes ≥ 10°. The values pass through the URL so the page stays shareable.

No JS? Fill the form by hand. The geolocation button needs JavaScript.